Weather History for KMRH - May, 2013

Change the Weather History Date:

Tuesday, May 28, 2013

  Actual Average Record
Temperature  
Mean Temperature 73 °F -  
Max Temperature 78 °F 79 °F 87 °F (1965)
Min Temperature 68 °F 62 °F 45 °F (1961)
Cooling Degree Days 8    
Growing Degree Days 23 (Base 50)    
Moisture  
Dew Point 64 °F    
Average Humidity 74    
Maximum Humidity 90    
Minimum Humidity 62    
Precipitation  
Precipitation 0.00 in - - ()
Sea Level Pressure  
Sea Level Pressure 30.25 in    
Wind  
Wind Speed 7 mph (SSE)    
Max Wind Speed 15 mph    
Max Gust Speed 20 mph    
Visibility 10 miles    
Events      
Averages and records for this station are not official NWS values.
T = Trace of Precipitation, MM = Missing Value Source: NWS Daily Summary

Daily Weather History Graph

Daily Weather History Graph

Search for Another Location

Airport or City:

Trip Planner

Search our weather history database for the weather conditions in past years. The results will help you decide how hot, cold, wet, or windy it might be!

Date:

Astronomy

May. 28, 2013 Rise Set
Actual Time 5:55 AM EDT 8:12 PM EDT
Civil Twilight 5:27 AM EDT 8:41 PM EDT
Nautical Twilight 4:51 AM EDT 9:16 PM EDT
Astronomical Twilight 4:13 AM EDT 9:55 PM EDT
Moon 11:39 PM EDT (5/28) 9:37 AM EDT (5/28)
Length of Visible Light 15h 14m
Length of Day
14h 16m
Waning Gibbous, 83% of the Moon is Illuminated
May 28
Waning Gibbous
May 31
Last Quarter
Jun 8
New
Jun 16
First Quarter
Jun 23
Full

Hourly Weather History & Observations

Time (EDT) Temp. Dew Point Humidity Pressure Visibility Wind Dir Wind Speed Gust Speed Precip Events Conditions
12:58 AM 69.1 °F 62.1 °F 78% 30.25 in 10.0 mi SE 4.6 mph - N/A   Clear
1:58 AM 69.1 °F 62.1 °F 78% 30.25 in 10.0 mi SSE 4.6 mph - N/A   Clear
2:58 AM 68.0 °F 63.0 °F 84% 30.23 in 10.0 mi SE 5.8 mph - N/A   Clear
3:58 AM 68.0 °F 63.0 °F 84% 30.23 in 10.0 mi SE 4.6 mph - N/A   Clear
4:58 AM 68.0 °F 62.1 °F 81% 30.23 in 10.0 mi SSE 4.6 mph - N/A   Clear
5:58 AM 68.0 °F 63.0 °F 84% 30.24 in 10.0 mi SE 4.6 mph - N/A   Clear
6:58 AM 70.0 °F 63.0 °F 78% 30.26 in 10.0 mi SE 5.8 mph - N/A   Clear
7:58 AM 73.0 °F 63.0 °F 71% 30.27 in 10.0 mi SSE 6.9 mph - N/A   Clear
8:58 AM 75.0 °F 64.0 °F 69% 30.28 in 10.0 mi SSE 8.1 mph - N/A   Clear
9:58 AM 75.9 °F 63.0 °F 64% 30.29 in 10.0 mi SSE 6.9 mph - N/A   Clear
10:58 AM 77.0 °F 63.0 °F 62% 30.29 in 10.0 mi South 6.9 mph - N/A   Clear
11:58 AM 77.0 °F 63.0 °F 62% 30.29 in 10.0 mi SSE 9.2 mph - N/A   Clear
12:58 PM 78.1 °F 64.0 °F 62% 30.30 in 10.0 mi South 11.5 mph - N/A   Clear
1:58 PM 78.1 °F 64.9 °F 64% 30.28 in 10.0 mi South 11.5 mph - N/A   Clear
2:58 PM 78.1 °F 64.9 °F 64% 30.26 in 10.0 mi South 15.0 mph - N/A   Clear
3:58 PM 78.1 °F 66.0 °F 66% 30.24 in 10.0 mi South 12.7 mph - N/A   Clear
4:58 PM 77.0 °F 66.0 °F 69% 30.22 in 10.0 mi South 12.7 mph 19.6 mph N/A   Clear
5:58 PM 77.0 °F 64.9 °F 66% 30.23 in 10.0 mi South 12.7 mph 18.4 mph N/A   Clear
6:58 PM 75.9 °F 64.9 °F 69% 30.22 in 10.0 mi South 8.1 mph - N/A   Clear
7:58 PM 73.0 °F 64.9 °F 76% 30.23 in 10.0 mi South 5.8 mph - N/A   Clear
8:58 PM 72.0 °F 66.0 °F 81% 30.23 in 10.0 mi South 4.6 mph - N/A   Clear
9:58 PM 72.0 °F 66.9 °F 84% 30.24 in 10.0 mi South 3.5 mph - N/A   Clear
10:58 PM 71.1 °F 66.9 °F 87% 30.24 in 10.0 mi South 3.5 mph - N/A   Clear
11:58 PM 70.0 °F 66.9 °F 90% 30.23 in 10.0 mi South 4.6 mph - N/A   Clear